| time (UTC) | temp F | wind direction | speed MPH | gust MPH | rain 1hr in | rain 24hr in | rain mn in | humidity % | barometer mb |
| 20260505015327 | 76 | 219 | 4.0 | 9.0 | 0.00 | 0.00 | 0.00 | 74 | 1008.5 |
| 20260505014338 | 76 | 140 | 2.0 | 6.0 | 0.00 | 0.00 | 0.00 | 74 | 1008.6 |
| 20260505013330 | 77 | 226 | 2.0 | 9.0 | 0.00 | 0.00 | 0.00 | 73 | 1008.8 |
| 20260505012341 | 77 | 134 | 3.0 | 8.0 | 0.00 | 0.00 | 0.00 | 72 | 1008.7 |
| 20260505011332 | 77 | 165 | 3.0 | 8.0 | 0.00 | 0.00 | 0.00 | 71 | 1008.7 |
| 20260505010339 | 78 | 174 | 4.0 | 9.0 | 0.00 | 0.00 | 0.00 | 70 | 1008.7 |
| 20260505005332 | 79 | 252 | 6.0 | 15.0 | 0.00 | 0.00 | 0.00 | 69 | 1008.6 |
| 20260505004323 | 79 | 216 | 4.0 | 12.0 | 0.00 | 0.00 | 0.00 | 68 | 1008.6 |
| 20260505003333 | 80 | 119 | 3.0 | 8.0 | 0.00 | 0.00 | 0.00 | 68 | 1008.6 |
| 20260505002344 | 80 | 148 | 5.0 | 12.0 | 0.00 | 0.00 | 0.00 | 67 | 1008.6 |
| 20260505001334 | 80 | 161 | 6.0 | 14.0 | 0.00 | 0.00 | 0.00 | 67 | 1008.6 |
| 20260505000345 | 81 | 158 | 6.0 | 16.0 | 0.00 | 0.00 | 0.00 | 66 | 1008.5 |
| 20260504235327 | 82 | 126 | 8.0 | 13.0 | 0.00 | 0.00 | 0.00 | 65 | 1008.6 |
| 20260504234348 | 82 | 162 | 7.0 | 14.0 | 0.00 | 0.00 | 0.00 | 65 | 1008.6 |
| 20260504233330 | 82 | 148 | 5.0 | 12.0 | 0.00 | 0.00 | 0.00 | 65 | 1008.7 |
| 20260504232350 | 82 | 151 | 6.0 | 13.0 | 0.00 | 0.00 | 0.00 | 65 | 1008.9 |
| 20260504231332 | 83 | 146 | 7.0 | 14.0 | 0.00 | 0.00 | 0.00 | 63 | 1008.9 |
| 20260504230336 | 84 | 177 | 9.0 | 18.0 | 0.00 | 0.00 | 0.00 | 62 | 1009.0 |
| 20260504225327 | 84 | 131 | 7.0 | 13.0 | 0.00 | 0.00 | 0.00 | 62 | 1009.0 |
| 20260504224338 | 84 | 171 | 7.0 | 13.0 | 0.00 | 0.00 | 0.00 | 61 | 1009.2 |
| 20260504223329 | 85 | 193 | 6.0 | 12.0 | 0.00 | 0.00 | 0.00 | 61 | 1009.4 |
| 20260504222340 | 84 | 151 | 5.0 | 15.0 | 0.00 | 0.00 | 0.00 | 61 | 1009.4 |
| 20260504221332 | 84 | 159 | 5.0 | 17.0 | 0.00 | 0.00 | 0.00 | 63 | 1009.5 |
| 20260504220324 | 84 | 120 | 7.0 | 15.0 | 0.00 | 0.00 | 0.00 | 62 | 1009.4 |
| 20260504215333 | 84 | 120 | 6.0 | 14.0 | 0.00 | 0.00 | 0.00 | 61 | 1009.6 |
| 20260504214323 | 84 | 201 | 5.0 | 17.0 | 0.00 | 0.00 | 0.00 | 62 | 1009.6 |
| 20260504213334 | 83 | 150 | 6.0 | 14.0 | 0.00 | 0.00 | 0.00 | 62 | 1009.6 |
| 20260504212325 | 83 | 121 | 6.0 | 15.0 | 0.00 | 0.00 | 0.00 | 63 | 1010.0 |
| 20260504211337 | 84 | 146 | 8.0 | 15.0 | 0.00 | 0.00 | 0.00 | 62 | 1010.3 |
| 20260504210349 | 83 | 103 | 7.0 | 13.0 | 0.00 | 0.00 | 0.00 | 62 | 1010.5 |
| 20260504205339 | 83 | 201 | 9.0 | 13.0 | 0.00 | 0.00 | 0.00 | 62 | 1010.6 |
| 20260504204322 | 82 | 146 | 7.0 | 19.0 | 0.00 | 0.00 | 0.00 | 64 | 1010.8 |
| 20260504203341 | 83 | 160 | 7.0 | 14.0 | 0.00 | 0.00 | 0.00 | 63 | 1011.0 |
| 20260504202322 | 83 | 124 | 4.0 | 17.0 | 0.00 | 0.00 | 0.00 | 63 | 1011.1 |
| 20260504201331 | 83 | 142 | 6.0 | 14.0 | 0.00 | 0.00 | 0.00 | 62 | 1011.3 |
| 20260504200347 | 83 | 159 | 7.0 | 16.0 | 0.00 | 0.00 | 0.00 | 62 | 1011.5 |
| 20260504195326 | 82 | 110 | 7.0 | 14.0 | 0.00 | 0.00 | 0.00 | 63 | 1011.6 |
| 20260504194337 | 82 | 155 | 5.0 | 11.0 | 0.00 | 0.00 | 0.00 | 63 | 1011.8 |
| 20260504193328 | 82 | 125 | 7.0 | 16.0 | 0.00 | 0.00 | 0.00 | 64 | 1012.0 |
| 20260504192339 | 81 | 122 | 4.0 | 14.0 | 0.00 | 0.00 | 0.00 | 64 | 1012.2 |
| 20260504191330 | 82 | 153 | 6.0 | 14.0 | 0.00 | 0.00 | 0.00 | 62 | 1012.4 |
| 20260504190323 | 81 | 184 | 5.0 | 14.0 | 0.00 | 0.00 | 0.00 | 66 | 1012.6 |
| 20260504185333 | 80 | 191 | 7.0 | 16.0 | 0.00 | 0.00 | 0.00 | 65 | 1012.6 |
| 20260504184325 | 80 | 179 | 6.0 | 12.0 | 0.00 | 0.00 | 0.00 | 66 | 1012.7 |
| 20260504183331 | 79 | 233 | 7.0 | 16.0 | 0.00 | 0.00 | 0.00 | 66 | 1012.8 |
| 20260504182322 | 79 | 230 | 7.0 | 15.0 | 0.00 | 0.00 | 0.00 | 66 | 1012.9 |
| 20260504181334 | 79 | 208 | 7.0 | 14.0 | 0.00 | 0.00 | 0.00 | 66 | 1013.2 |
| 20260504180325 | 79 | 191 | 8.0 | 14.0 | 0.00 | 0.00 | 0.00 | 67 | 1013.2 |
| 20260504175337 | 77 | 159 | 4.0 | 14.0 | 0.00 | 0.00 | 0.00 | 69 | 1013.5 |
| 20260504174329 | 77 | 186 | 7.0 | 15.0 | 0.00 | 0.00 | 0.00 | 68 | 1013.8 |
| 20260504173338 | 76 | 156 | 5.0 | 12.0 | 0.00 | 0.00 | 0.00 | 71 | 1013.8 |
| 20260504172350 | 76 | 221 | 5.0 | 15.0 | 0.00 | 0.00 | 0.00 | 71 | 1014.1 |
| 20260504171342 | 75 | 191 | 5.0 | 12.0 | 0.00 | 0.00 | 0.00 | 72 | 1014.4 |
| 20260504170324 | 75 | 161 | 6.0 | 12.0 | 0.00 | 0.00 | 0.00 | 71 | 1014.7 |
| 20260504160322 | 76 | 134 | 6.0 | 14.0 | 0.00 | 0.00 | 0.00 | 69 | 1014.7 |
| 20260504150329 | 73 | 171 | 7.0 | 16.0 | 0.00 | 0.00 | 0.00 | 73 | 1015.0 |
| 20260504140350 | 69 | 82 | 5.0 | 14.0 | 0.00 | 0.00 | 0.00 | 76 | 1015.0 |
| 20260504130326 | 65 | 160 | 3.0 | 8.0 | 0.00 | 0.00 | 0.00 | 81 | 1015.0 |
| 20260504110340 | 61 | 209 | 2.0 | 7.0 | 0.00 | 0.00 | 0.00 | 85 | 1014.6 |
| 20260504100339 | 61 | 164 | 1.0 | 7.0 | 0.00 | 0.00 | 0.00 | 84 | 1015.1 |
| 20260504081332 | 62 | 144 | 1.0 | 5.0 | 0.00 | 0.00 | 0.00 | 82 | 1015.3 |
| 20260504080343 | 63 | 150 | 1.0 | 4.0 | 0.00 | 0.00 | 0.00 | 81 | 1015.4 |
| 20260504070337 | 63 | 141 | 2.0 | 7.0 | 0.00 | 0.00 | 0.00 | 78 | 1016.3 |
| 20260504050327 | 66 | 173 | 4.0 | 9.0 | 0.00 | 0.00 | 0.00 | 69 | 1017.4 |
| 20260504045338 | 66 | 146 | 4.0 | 10.0 | 0.00 | 0.00 | 0.00 | 68 | 1017.4 |
| 20260504044349 | 66 | 105 | 2.0 | 8.0 | 0.00 | 0.00 | 0.00 | 66 | 1017.4 |
| 20260504043339 | 66 | 154 | 2.0 | 7.0 | 0.00 | 0.00 | 0.00 | 66 | 1017.7 |
| 20260504042350 | 65 | 152 | 4.0 | 7.0 | 0.00 | 0.00 | 0.00 | 66 | 1017.5 |
| 20260504041337 | 64 | 124 | 1.0 | 5.0 | 0.00 | 0.00 | 0.00 | 70 | 1017.5 |
| 20260504040348 | 62 | 130 | 0.0 | 0.0 | 0.00 | 0.00 | 0.00 | 72 | 1017.5 |
| 20260504035328 | 63 | 155 | 0.0 | 0.0 | 0.00 | 0.00 | 0.00 | 70 | 1017.6 |
| 20260504034349 | 63 | 155 | 0.0 | 0.0 | 0.00 | 0.00 | 0.00 | 71 | 1017.7 |
| 20260504033328 | 63 | 155 | 0.0 | 0.0 | 0.00 | 0.00 | 0.00 | 70 | 1017.7 |
| 20260504032339 | 64 | 155 | 0.0 | 0.0 | 0.00 | 0.00 | 0.00 | 71 | 1017.5 |
| 20260504031330 | 65 | 155 | 0.0 | 0.0 | 0.00 | 0.00 | 0.00 | 65 | 1017.7 |
| 20260504030321 | 66 | 155 | 0.0 | 0.0 | 0.00 | 0.00 | 0.00 | 66 | 1017.7 |
| 20260504025334 | 67 | 155 | 0.0 | 2.0 | 0.00 | 0.00 | 0.00 | 62 | 1017.7 |
| 20260504024326 | 67 | 156 | 0.0 | 2.0 | 0.00 | 0.00 | 0.00 | 62 | 1017.6 |
| 20260504023336 | 67 | 143 | 0.0 | 1.0 | 0.00 | 0.00 | 0.00 | 61 | 1017.6 |
| 20260504022327 | 67 | 155 | 0.0 | 2.0 | 0.00 | 0.00 | 0.00 | 60 | 1017.4 |
| 20260504021337 | 68 | 171 | 0.0 | 1.0 | 0.00 | 0.00 | 0.00 | 59 | 1017.3 |
| 20260504020328 | 69 | 165 | 0.0 | 1.0 | 0.00 | 0.00 | 0.00 | 57 | 1017.4 |